Location: Madrid
(40.4167°N, 3.7036°W)
Time: 14:16:28
(UTC+00:00)

ISS - Pass Details

Date: 11 July 2024
Orbit: 410 x 424 km, 51.6° (Epoch: 14 July)

Event Time Altitude Azimuth Distance (km) Brightness Sun altitude
Rises 03:25:53 0° 304° (NW) 2,349 -0.1 -14.1°
Reaches altitude 10° 03:27:59 10° 301° (WNW) 1,486 -1.1 -13.8°
Maximum altitude 03:31:17 62° 220° (SW) 471 -3.8 -13.4°
Drops below altitude 10° 03:34:34 10° 139° (SE) 1,485 -1.0 -12.9°
Sets 03:36:41 0° 136° (SE) 2,348 0.1 -12.7°
